Home > Weather > Oftringen > Past weeks

Flag for Switzerland Past Weather in Oftringen, Aargau, Switzerland — Yesterday and Last 2 Weeks

Now
88 °F

Hot.


Feels Like: 88 °F
Forecast: 62 / 88 °F
Wind: 2 mph from Northeast

Location: Wynau

Current Time: Aug 27, 2016 at 5:23:43 PM

Latest Report: Aug 27, 2016 at 4:00 PM


Visibility: N/A

Pressure: 29.97 "Hg

Humidity: 40%

Dew Point: 61 °F

Location of OftringenLocation

Past Weather in Oftringen — Graph

°F

Oftringen Temperature Yesterday

Maximum temperature yesterday: 91 °F (at 5:00 PM)
Minimum temperature yesterday: 61 °F (at 7:00 AM)
Average temperature yesterday: 74 °F

High & Low Weather Summary for the Past Weeks

 TemperatureHumidityPressure
High91 °F (Aug 26, 5:00 PM)100% (Aug 13, 7:00 AM)30.40 "Hg (Aug 13, 7:00 AM)
Low49 °F (Aug 22, 7:00 AM)35% (Aug 26, 5:00 PM)29.80 "Hg (Aug 17, 6:00 PM)
Average67 °F80%30.08 "Hg
* Reported Aug 12 4:00 PM — Aug 27 4:00 PM, Oftringen, Weather by CustomWeather, © 2016

Note: Actual official high and low records may vary slightly from our data, if they occured in-between our weather recording intervals... More about our weather records

Advertising

Oftringen Weather History for the Previous 24 Hours

Scroll right to see more
 ConditionsComfort  
Time TempWeatherWind HumidityBarometerVisibility
4:00 PM
Sat, Aug 27
88 °FHot.2 mph40%29.97 "HgN/A
3:00 PM88 °FWarm.2 mph41%29.98 "HgN/A
2:00 PM85 °FWarm.2 mph46%30.01 "HgN/A
1:00 PM83 °FWarm.2 mph50%30.03 "HgN/A
12:00 PM81 °FWarm.5 mph54%30.05 "HgN/A
11:00 AM78 °FWarm.3 mph65%30.07 "HgN/A
10:00 AM71 °FMild.1 mph76%30.09 "HgN/A
9:00 AM67 °FMild.1 mph86%30.10 "HgN/A
8:00 AM62 °FCool.1 mph95%30.10 "HgN/A
7:00 AM60 °FCool.1 mph100%30.10 "HgN/A
6:00 AM60 °FCool.1 mph99%30.09 "HgN/A
5:00 AM61 °FCool.1 mph99%30.09 "HgN/A
4:00 AM62 °FCool.1 mph98%30.09 "HgN/A
3:00 AM63 °FMild.1 mph98%30.09 "HgN/A
2:00 AM64 °FMild.No wind96%30.09 "HgN/A
1:00 AM65 °FMild.1 mph97%30.08 "HgN/A
12:00 AM66 °FMild.No wind94%30.06 "HgN/A
11:00 PM
Fri, Aug 26
67 °FMild.No wind89%30.06 "HgN/A
10:00 PM69 °FMild.1 mph87%30.05 "HgN/A
9:00 PM72 °FMild.2 mph80%30.03 "HgN/A
8:00 PM77 °FWarm.1 mph63%30.00 "HgN/A
7:00 PM82 °FWarm.2 mph57%29.98 "HgN/A
6:00 PM87 °FWarm.3 mph50%29.97 "HgN/A
5:00 PM91 °FHot.3 mph35%29.96 "HgN/A
Weather by CustomWeather, © 2016

See weather overviewHow to use our weather pages